Location: Newark
(46.2358°N, 112.1211°W)
Time: 09:30:37
(UTC+00:00)

DELFI C3 - Pass Details

Date: 09 July 2020
Orbit: 533 x 552 km, 97.4° (Epoch: 12 August)

Event Time Altitude Azimuth Distance (km) Brightness Sun altitude
Rises 04:09:17 0° 199° (SSW) 2,712 ? -7.3°
Reaches altitude 10° 04:11:46 10° 214° (SW) 1,826 ? -7.6°
Maximum altitude 04:14:54 22° 267° (W) 1,230 ? -8.0°
Drops below altitude 10° 04:18:03 10° 319° (NW) 1,841 ? -8.4°
Sets 04:20:34 0° 335° (NNW) 2,741 ? -8.7°
